Weather in Myhove

Ukraine / Chernovtci District     48°08′59″N   25°22′49″E
temp.,
°C
wind,
m/s
gust,
m/s
humid.,
%
clouds,
%
prec.,
mm/h
press.,
hPa
HPBL,
m
1 march, mon
mon123:00+2wnw31277100 0.0 1028828
02:00+1nw51198100 3.8 1028575
05:00+1nw5998100 3.8 1028451
08:00+1nnw51099100 5.1 1030564
11:00+2nnw4795100 0.3 1031521
14:00+3nw469299 0.8 1032539
17:00+2wnw489396 0.1 1033518
20:00+1nw369698 0.3 1035305
2 march, tue
tue223:000w369595 0.1 1036148
02:00−1wsw228983 0.1 103629
05:00−1wsw23843 0.0 103444
08:000wsw23751 0.0 103476
11:00+6wnw36560 0.0 1032430
14:00+10nw59510 0.0 1030796
17:00+8nw36700 0.0 1029140
20:00+4wnw36780 0.0 1030111
3 march, wed
wed323:00+3wnw516720 0.0 1032485
02:00+2wnw514760 0.0 1032398
05:00+1wnw38820 0.0 1032229
08:00+1wnw37817 0.0 1032289
11:00+6nw467746 0.0 1032664
14:00+7nnw357362 0.0 1030738
17:00+6nne227824 0.0 1028244
20:00+3sse229012 0.0 102922
4 march, thu
thu423:00+2s23890 0.0 102727
02:00+2ssw22770 0.0 102523
05:00+1sw22730 0.0 102323
08:00+3sw22671 0.0 102132
11:00+9nw12500 0.0 1018362
14:00+12wnw36429 0.0 10161344
17:00+10w12578 0.0 101444
20:00+5sw337210 0.0 101547
5 march, fri
fri523:00+4sw337225 0.0 101540
02:00+3sw127345 0.0 101423
05:00+5ssw336889 0.1 101260
08:00+6s376595 0.1 1011181
11:00+9sw41155100 0.0 10091247
14:00+10wsw41053100 0.0 10081526
17:00+9wnw486499 0.0 1009965
20:00+5nnw6109388 1.6 1012667